Home > Weather > Bryansk > Past weeks

Flag for Russia Weather for the Past 2 Weeks in Bryansk, Russia

Now
34 °F

Light rain. Fog.


Feels Like: 23 °F
Forecast: 35 / 40 °F
Wind: 17 mph from East

Location: Brjansk

Current Time: Feb 14, 2016 at 4:39:59 PM

Latest Report: Feb 14, 2016 at 4:00 PM


Visibility: 3 mi

Pressure: 29.47 "Hg

Humidity: 100%

Dew point: 34 °F

Location of BryanskLocation

Historic Weather in Bryansk — Graph

°F

Bryansk Temperature Yesterday

Maximum temperature yesterday: 36 °F (at 12:30 PM)
Minimum temperature yesterday: 32 °F (at 5:00 AM)
Average temperature yesterday: 34 °F

High & Low Weather Summary for the Past Weeks

 TemperatureHumidityPressure
High39 °F (Feb 3, 1:30 PM)100% (Jan 31, 5:00 PM)30.27 "Hg (Jan 31, 5:00 PM)
Low18 °F (Feb 7, 7:00 AM)56% (Feb 8, 4:30 PM)29.45 "Hg (Jan 31, 5:00 PM)
Average33 °F84%29.84 "Hg
* Reported Jan 30 3:00 PM — Feb 14 3:30 PM, Bryansk, Weather by CustomWeather, © 2016

Note: Actual official high and low records may vary slightly from our data, if they occured in-between our weather recording intervals... More about our weather records

Advertising

Bryansk Weather History for the Previous 24 Hours

 ConditionsComfort  
Time TempWeatherWind HumidityBarometerVisibility
3:30 PM
Sun, Feb 14
34 °FLight rain. Fog.15 mph100%29.50 "Hg3 mi
3:00 PM34 °FLight rain. Fog.15 mph93%29.50 "Hg3 mi
2:30 PM34 °FLight rain. Fog.15 mph93%29.53 "Hg3 mi
2:00 PM32 °FLight rain. Ice fog.15 mph100%29.56 "Hg1 mi
1:30 PM32 °FLight rain. Ice fog.15 mph100%29.53 "Hg2 mi
1:00 PM32 °FLight mixture of precip. Ice fog.17 mph93%29.56 "Hg2 mi
12:30 PM32 °FLight mixture of precip. Ice fog.15 mph93%29.59 "Hg2 mi
12:00 PM30 °FIce fog.15 mph100%29.59 "Hg2 mi
11:30 AM30 °FIce fog.15 mph93%29.62 "Hg2 mi
11:00 AM30 °FIce fog.22 mph93%29.62 "Hg2 mi
10:30 AM28 °FIce fog.20 mph100%29.65 "Hg2 mi
10:00 AM28 °FIce fog.15 mph100%29.68 "Hg2 mi
9:30 AM28 °FLow clouds.15 mph93%29.68 "Hg6 mi
9:00 AM28 °FLight snow. Mostly cloudy.13 mph93%29.71 "Hg3 mi
8:30 AM28 °FLight snow. Mostly cloudy.13 mph93%29.71 "Hg4 mi
8:00 AM28 °FMostly cloudy.15 mph93%29.74 "HgN/A
7:30 AM28 °FLow clouds.17 mph93%29.74 "HgN/A
7:00 AM28 °FLow clouds.15 mph93%29.77 "HgN/A
6:00 AM28 °FLow clouds.17 mph93%29.77 "HgN/A
5:00 AM30 °FLow clouds.15 mph86%29.80 "HgN/A
7:00 PM
Sat, Feb 13
34 °FOvercast.13 mph87%29.98 "Hg6 mi
6:30 PM34 °FLow clouds.8 mph87%30.01 "Hg6 mi
6:00 PM34 °FLow clouds.10 mph87%30.01 "Hg6 mi
5:30 PM34 °FLow clouds.8 mph87%30.01 "Hg6 mi
5:00 PM34 °FLow clouds.8 mph87%30.01 "Hg6 mi
4:30 PM34 °FOvercast.10 mph87%30.01 "HgN/A
4:00 PM34 °FOvercast.10 mph93%30.01 "HgN/A
Weather by CustomWeather, © 2016

See weather overviewHow to use our weather pages